Weather History for Lancaster, SC

Change the Weather History Date:

Thursday, November 7, 2013

  Actual Average (KUZA) Record (KUZA)
Temperature  
Mean Temperature 57 °F -  
Max Temperature 73 °F 63 °F 79 °F (1975)
Min Temperature 41 °F 41 °F 27 °F (1967)
Degree Days  
Heating Degree Days 8    
Growing Degree Days 7 (Base 50)    
Moisture  
Dew Point 50 °F    
Average Humidity 78    
Maximum Humidity 100    
Minimum Humidity 38    
Precipitation  
Precipitation 0.00 in - - ()
Sea Level Pressure  
Sea Level Pressure 30.05 in    
Wind  
Wind Speed 3 mph (NW)    
Max Wind Speed 12 mph    
Max Gust Speed 17 mph    
Visibility 9 miles    
Events      
Averages and records for this station are not official NWS values.
T = Trace of Precipitation, MM = Missing Value Source: NWS Daily Summary

Daily Weather History Graph

Daily Weather History Graph

Search for Another Location

Airport:

Trip Planner

Search our weather history database for the weather conditions in past years. The results will help you decide how hot, cold, wet, or windy it might be!

Date:

Astronomy

Nov. 07, 2013 Rise Set
Actual Time 6:49 AM EST 5:23 PM EST
Civil Twilight 6:23 AM EST 5:50 PM EST
Nautical Twilight 5:53 AM EST 6:20 PM EST
Astronomical Twilight 5:23 AM EST 6:50 PM EST
Moon 10:55 AM EST (11/7) 9:35 PM EST (11/7)
Length of Visible Light 11h 26m
Length of Day
10h 34m
Waxing Crescent, 22% of the Moon is Illuminated
Nov 7
Waxing Crescent
Nov 10
First Quarter
Nov 17
Full
Nov 25
Last Quarter
Dec 2
New

Hourly Weather History & Observations

Time (EST) Temp. Windchill Dew Point Humidity Pressure Visibility Wind Dir Wind Speed Gust Speed Precip Events Conditions
12:15 AM 53.6 °F - 53.6 °F 100% 30.13 in 10.0 mi Calm Calm - N/A   Partly Cloudy
12:35 AM 53.6 °F - 53.6 °F 100% 30.12 in 9.0 mi Calm Calm - N/A   Clear
12:55 AM 53.6 °F - 53.6 °F 100% 30.12 in 0.8 mi Calm Calm - N/A   Mostly Cloudy
1:15 AM 53.6 °F - 53.6 °F 100% 30.12 in 7.0 mi Calm Calm - N/A   Mostly Cloudy
1:35 AM 51.8 °F - 51.8 °F 100% 30.11 in 10.0 mi Calm Calm - N/A   Mostly Cloudy
1:55 AM 51.8 °F - 51.8 °F 100% 30.10 in 10.0 mi Calm Calm - N/A   Clear
2:15 AM 51.8 °F - 51.8 °F 100% 30.08 in 10.0 mi Calm Calm - N/A   Clear
2:35 AM 51.8 °F - 51.8 °F 100% 30.08 in 8.0 mi Calm Calm - N/A   Clear
2:55 AM 51.8 °F - 51.8 °F 100% 30.07 in 9.0 mi Calm Calm - N/A   Clear
3:15 AM 51.8 °F - 51.8 °F 100% 30.07 in 10.0 mi North - - N/A   Clear
3:35 AM 50.0 °F - 50.0 °F 100% 30.06 in 8.0 mi Calm Calm - N/A   Clear
3:55 AM 50.0 °F - 50.0 °F 100% 30.06 in 6.0 mi North - - N/A   Clear
4:15 AM 50.0 °F - 50.0 °F 100% 30.06 in 3.0 mi Calm Calm - N/A   Clear
4:35 AM 50.0 °F - 50.0 °F 100% 30.05 in 7.0 mi Calm Calm - N/A   Clear
4:55 AM 48.2 °F - 48.2 °F 100% 30.04 in 7.0 mi Calm Calm - N/A   Clear
5:15 AM 48.2 °F - 48.2 °F 100% 30.04 in 6.0 mi Calm Calm - N/A   Clear
5:35 AM 48.2 °F - 48.2 °F 100% 30.03 in 7.0 mi Calm Calm - N/A   Clear
5:55 AM 48.2 °F - 48.2 °F 100% 30.04 in 8.0 mi Calm Calm - N/A   Clear
6:15 AM 48.2 °F - 48.2 °F 100% 30.03 in 10.0 mi Calm Calm - N/A   Clear
6:35 AM 48.2 °F - 48.2 °F 100% 30.04 in 8.0 mi Calm Calm - N/A   Clear
6:55 AM 48.2 °F - 48.2 °F 100% 30.04 in 5.0 mi Calm Calm - N/A   Clear
7:15 AM 48.2 °F - 48.2 °F 100% 30.04 in 8.0 mi Calm Calm - N/A   Clear
7:35 AM 48.2 °F - 48.2 °F 100% 30.05 in 5.0 mi Calm Calm - N/A   Clear
7:55 AM 48.2 °F - 48.2 °F 100% 30.05 in 7.0 mi Calm Calm - N/A   Partly Cloudy
8:15 AM 50.0 °F - 50.0 °F 100% 30.05 in 8.0 mi Calm Calm - N/A   Partly Cloudy
8:35 AM 53.6 °F - 53.6 °F 100% 30.04 in 8.0 mi Calm Calm - N/A   Clear
8:55 AM 57.2 °F - 57.2 °F 100% 30.04 in 10.0 mi Calm Calm - N/A   Clear
9:15 AM 60.8 °F - 59.0 °F 94% 30.05 in 10.0 mi WSW 5.8 mph - N/A   Partly Cloudy
9:35 AM 64.4 °F - 59.0 °F 83% 30.04 in 10.0 mi SW 3.5 mph - N/A   Scattered Clouds
9:55 AM 64.4 °F - 59.0 °F 83% 30.04 in 10.0 mi SW 5.8 mph - N/A   Mostly Cloudy
10:15 AM 64.4 °F - 59.0 °F 83% 30.04 in 10.0 mi WSW 4.6 mph - N/A   Mostly Cloudy
10:35 AM 66.2 °F - 60.8 °F 83% 30.02 in 10.0 mi WSW 5.8 mph - N/A   Overcast
10:55 AM 66.2 °F - 60.8 °F 83% 30.02 in 10.0 mi WSW 6.9 mph - N/A   Overcast
11:15 AM 66.2 °F - 60.8 °F 83% 30.01 in 10.0 mi West 6.9 mph - N/A   Overcast
11:35 AM 66.2 °F - 60.8 °F 83% 30.00 in 10.0 mi SW 4.6 mph - N/A   Overcast
11:55 AM 68.0 °F - 62.6 °F 83% 30.00 in 10.0 mi West 8.1 mph - N/A   Overcast
12:15 PM 68.0 °F - 62.6 °F 83% 29.98 in 10.0 mi SW 3.5 mph - N/A   Mostly Cloudy
12:35 PM 68.0 °F - 62.6 °F 83% 29.98 in 10.0 mi West 8.1 mph - N/A   Mostly Cloudy
12:55 PM 68.0 °F - 62.6 °F 83% 29.98 in 10.0 mi WSW 8.1 mph - N/A   Overcast
1:15 PM 68.0 °F - 62.6 °F 83% 29.97 in 10.0 mi West 9.2 mph - N/A   Overcast
1:35 PM 69.8 °F - 60.8 °F 73% 29.97 in 10.0 mi West 11.5 mph - N/A   Mostly Cloudy
1:55 PM 69.8 °F - 60.8 °F 73% 29.97 in 10.0 mi West 11.5 mph 16.1 mph N/A   Overcast
2:15 PM 69.8 °F - 59.0 °F 68% 29.97 in 10.0 mi WNW 9.2 mph - N/A   Mostly Cloudy
2:35 PM 71.6 °F - 59.0 °F 64% 29.97 in 10.0 mi NW 6.9 mph - N/A   Mostly Cloudy
2:55 PM 69.8 °F - 57.2 °F 64% 29.97 in 10.0 mi NW 8.1 mph - N/A   Partly Cloudy
3:15 PM 71.6 °F - 57.2 °F 60% 29.97 in 10.0 mi NNW 6.9 mph - N/A   Clear
3:35 PM 71.6 °F - 57.2 °F 60% 29.97 in 10.0 mi NNW 6.9 mph - N/A   Clear
3:55 PM 73.4 °F - 57.2 °F 57% 29.97 in 10.0 mi NW 5.8 mph - N/A   Partly Cloudy
4:15 PM 71.6 °F - 57.2 °F 60% 29.97 in 10.0 mi NNW 4.6 mph - N/A   Clear
4:35 PM 71.6 °F - 57.2 °F 60% 29.97 in 10.0 mi Calm Calm - N/A   Partly Cloudy
4:55 PM 71.6 °F - 57.2 °F 60% 29.98 in 10.0 mi North 3.5 mph - N/A   Mostly Cloudy
5:15 PM 68.0 °F - 53.6 °F 60% 29.99 in 10.0 mi NNW 8.1 mph - N/A   Mostly Cloudy
5:55 PM 64.4 °F - 46.4 °F 52% 30.02 in 10.0 mi NNW 11.5 mph 17.3 mph N/A   Clear
6:15 PM 62.6 °F - 41.0 °F 45% 30.04 in 10.0 mi NNW 9.2 mph - N/A   Clear
6:35 PM 60.8 °F - 39.2 °F 45% 30.05 in 10.0 mi NNW 10.4 mph 17.3 mph N/A   Clear
6:55 PM 59.0 °F - 37.4 °F 45% 30.06 in 10.0 mi North 11.5 mph - N/A   Clear
7:15 PM 57.2 °F - 35.6 °F 44% 30.08 in 10.0 mi North 6.9 mph - N/A   Clear
7:35 PM 57.2 °F - 32.0 °F 38% 30.09 in 10.0 mi North 8.1 mph 16.1 mph N/A   Clear
7:55 PM 55.4 °F - 32.0 °F 41% 30.09 in 10.0 mi North 8.1 mph - N/A   Clear
8:15 PM 53.6 °F - 32.0 °F 44% 30.10 in 10.0 mi North 5.8 mph - N/A   Clear
8:35 PM 53.6 °F - 32.0 °F 44% 30.10 in 10.0 mi North 10.4 mph - N/A   Clear
8:55 PM 53.6 °F - 32.0 °F 44% 30.10 in 10.0 mi North 8.1 mph - N/A   Clear
9:15 PM 53.6 °F - 32.0 °F 44% 30.11 in 10.0 mi North 6.9 mph - N/A   Clear
9:35 PM 50.0 °F - 32.0 °F 50% 30.11 in 10.0 mi NNE 6.9 mph - N/A   Clear
9:55 PM 50.0 °F - 32.0 °F 50% 30.12 in 10.0 mi NNE 5.8 mph - N/A   Clear
10:15 PM 50.0 °F - 32.0 °F 50% 30.12 in 10.0 mi North 3.5 mph - N/A   Clear
10:35 PM 46.4 °F 45.2 °F 35.6 °F 66% 30.12 in 10.0 mi North 3.5 mph - N/A   Clear
10:55 PM 44.6 °F - 35.6 °F 71% 30.13 in 10.0 mi Calm Calm - N/A   Clear
11:15 PM 42.8 °F - 35.6 °F 76% 30.13 in 10.0 mi Calm Calm - N/A   Clear
11:35 PM 41.0 °F - 35.6 °F 81% 30.13 in 10.0 mi Calm Calm - N/A   Clear
11:55 PM 41.0 °F - 35.6 °F 81% 30.14 in 10.0 mi Calm Calm - N/A   Clear